Location: Unspecified
(0.0000°N, 0.0000°E)
Time: 11:19:59
(UTC+00:00)

Explorer 11/Cluster Stage 4 - Pass Details

Date: 02 October 2020
Orbit: 467 x 1258 km, 28.8° (Epoch: 28 October)

Event Time Altitude Azimuth Distance (km) Brightness Sun altitude
Rises 05:45:44 0° 313° (NW) 3,961 9.7 -0.9°
Reaches altitude 10° 05:48:34 10° 319° (NW) 3,083 9.2 -0.2°
Maximum altitude 05:56:04 46° 30° (NNE) 1,619 8.5 1.7°
Drops below altitude 10° 06:03:52 10° 101° (E) 3,209 12.2 3.6°
Sets 06:06:52 0° 107° (ESE) 4,135 12.3 4.4°
